www.pogodaiklimat.ru

Погода и климат >> Архив погоды >> Россия >> Татарстан >> Большие Кайбицы


ПОГОДА в Больших Кайбицах

  • Прогноз погоды в Больших Кайбицах
  • Монитор погоды в Больших Кайбицах

АРХИВ ПОГОДЫ в Больших Кайбицах

Время (UTC), дата Ветер
(напр.,м/с)
 
Видим.   Явления Облачность Т
(С)
Тd
(С)
f
(%)
Тe
(С)
Тes
(С)
Комфортность P
(гПа)
Po
(гПа)
Тmin
(С)
Tmax
(С)
R
(мм)
R24
(мм)
S
(см)
15 14.07 ЮЗ 2 20 км 9/0
[Ac trans]
+20.2 +13.6 66 +23 +24 комфорт 1009.7 994.9 +22.2
18 14.07 Ю 1 20 км 10/0
[Ac und]
+17.8 +14.6 82 +19 +19 1009.6 994.7
21 14.07 З 2 20 км 8/0
[Ac trans]
+16.2 +14.0 87 +16 +16 1009.1 994.1
00 15.07 З 2 20 км 10/0
[Ac und]
+16.4 +13.1 81 +17 +17 1008.7 993.7
03 15.07 СЗ 2 20 км 8/4 1000 м
[Sc diur, vesp Ac trans]
+16.3 +13.2 82 +16 +17 1008.0 993.0 +15.8
06 15.07 СЗ 5 20 км 9/3 600 м
[Sc Ac trans]
+20.6 +13.6 64 +23 +25 комфорт 1007.1 992.4
09 15.07 СЗ 5 20 км 9/6 600 м
[Sc Ac trans]
+22.0 +10.7 49 +24 +26 комфорт 1006.5 991.8
12 15.07 З 5-10
{10}
20 км 9/4 600 м
[Sc Ac trans]
+22.6 +7.8 39 +24 +25 комфорт 1006.4 991.7
15 15.07 З 5
{10}
20 км 9/3 600 м
[Sc Cc]
+21.3 +8.6 44 +22 +23 комфорт 1006.9 992.2 +22.9
18 15.07 ЮЗ 3 20 км 9/0
[Cc]
+16.2 +9.5 64 +16 +16 1007.9 992.9
21 15.07 З 2 20 км ясно +14.2 +9.3 72 +14 +14 1008.4 993.3
00 16.07 ЮЗ 2 20 км 3/0
[Cc]
+12.6 +8.5 76 +12 +12 1010.1 994.8
03 16.07 З 2 20 км 3/0
[Cc]
+15.6 +12.8 83 +15 +18 1011.6 996.2 +12.6
06 16.07 З 4 20 км 1/0
[Ci fib]
+21.1 +10.8 52 +23 +30 комфорт 1011.7 996.9
09 16.07 З 3 20 км 5/3 1000 м
[Cu hum Ci fib]
+23.5 +8.0 37 +24 +32 комфорт 1012.1 997.4
12 16.07 З 3 20 км 9/8 1000 м
[Cu med, cong Ci]
+23.2 +9.4 41 +25 +26 комфорт 1012.8 998.0
15 16.07 СЗ 2 20 км 9/1 1000 м
[Cu hum Ci fib]
+23.8 +8.6 38 +24 +26 комфорт 1012.4 997.7 +24.8
18 16.07 В 1 20 км 9/3 600 м
[Sc Ci]
+19.1 +10.4 57 +21 +21 комфорт 1013.4 998.4
21 16.07 СЗ 1 20 км 9/0
[Ci fib]
+13.6 +11.2 85 +14 +14 1014.1 998.8
00 17.07 СВ 1 20 км 9/6 600 м
[Sc Ci fib]
+12.8 +10.9 88 +13 +13 1013.8 998.5
03 17.07 СВ 2 20 км 9/1 600 м
[Sc Ci]
+17.5 +12.2 71 +18 +20 1013.6 998.5 +12.3
06 17.07 В 5 20 км 9/4 600 м
[Cb calv Ci fib]
+22.9 +12.4 52 +26 +28 жарко 1012.5 997.7
09 17.07 В 2 20 км 10/0
[Ac trans]
+21.0 +13.3 61 +24 +30 комфорт 1012.3 997.5
12 17.07 В 1 20 км 10/10 600 м
[Sc diur, vesp]
+20.9 +15.4 71 +25 +25 комфорт 1011.4 996.6
15 17.07 В 3 20 км {дождь} 9/9 600 м
[Sc diur, vesp]
+19.1 +14.1 73 +21 +21 комфорт 1010.7 995.7 +23.4
18 17.07 СВ 1 20 км {дождь} 9/8
[Sc diur, vesp Ci fib]
+17.2 +14.1 82 +18 +18 1010.2 995.2
21 17.07 СВ 2 20 км 9/6 600 м
[Sc diur, vesp Ci fib]
+17.1 +14.2 83 +17 +17 1009.2 994.2
00 18.07 СВ 2 20 км 10/10 600 м
[Sc]
+17.0 +14.5 85 +17 +17 1007.7 992.8
03 18.07 С 2 20 км 9/9 600 м
[Sc diur, vesp]
+17.2 +15.2 88 +18 +18 1007.8 992.9 +16.3
06 18.07 В 4 20 км {дождь} 4/3 600 м
[Sc diur, vesp Ci fib]
+23.0 +15.5 63 +27 +32 душно 1006.4 991.7
09 18.07 В 5 20 км 8/8 1000 м
[Cu med, cong]
+25.6 +15.0 52 +28 +30 жарко 1005.6 991.1
12 18.07 Ю 3 20 км 9/9 1000 м
[Cu med, cong]
+27.7 +15.3 47 +31 +31 душно 1005.4 991.0
15 18.07 З 3 20 км 4/1 1000 м
[Cu med, cong Ac trans]
+24.6 +16.7 61 +28 +29 душно 1006.1 991.5 +27.9
18 18.07 З 2 20 км 9/9 600 м
[Sc]
+21.0 +16.6 76 +25 +25 комфорт 1007.1 992.3
21 18.07 З 2 20 км 6/6 600 м
[Sc diur, vesp]
+19.5 +16.3 82 +22 +22 комфорт 1007.6 992.7
00 19.07 Ю 1 20 км 4/1 600 м
[Sc diur, vesp Ci fib]
+17.3 +15.1 87 +18 +18 1008.3 993.3
03 19.07 З 3 20 км 9/0
[Ci sp]
+20.3 +15.8 75 +23 +25 комфорт 1008.4 993.6 +16.5
06 19.07 З 3 20 км 8/1 600 м
[Sc Ci fib]
+23.2 +13.4 54 +26 +33 жарко 1008.5 993.8
09 19.07 ЮЗ 4 20 км 5/4 1000 м
[Cu hum Ci fib]
+26.8 +11.3 38 +28 +34 жарко 1008.5 994.0
12 19.07 ЮЗ 3 20 км 3/3 1000 м
[Sc]
+27.1 +8.8 32 +27 +33 жарко 1008.4 993.9
15 19.07 ЮЗ 3 20 км 3/3 600 м
[Sc]
+26.4 +8.8 33 +27 +28 жарко 1008.5 994.0 +27.9
18 19.07 ЮЗ 2 20 км 4/4 600 м
[Sc]
+20.9 +11.8 56 +24 +24 комфорт 1009.9 995.1
21 19.07 Ю 2 20 км 1/1 600 м
[Sc]
+16.3 +11.2 72 +16 +16 1010.6 995.5
00 20.07 ЮВ 2 20 км 1/0
[Ci fib]
+13.4 +10.0 80 +13 +13 1011.5 996.2
03 20.07 ЮВ 2 20 км 4/0
[Ci fib]
+17.9 +11.7 67 +18 +20 1011.5 996.5
06 20.07 Ю 5 20 км 3/0
[Ci fib]
+23.3 +11.9 49 +26 +31 жарко 1011.1 996.4
09 20.07 ЮЗ 6-11
{11}
20 км 4/4 1000 м
[Cu hum]
+24.6 +10.6 41 +26 +29 жарко 1011.2 996.5
12 20.07 ЮЗ 5
{13}
20 км 9/9 1000 м
[Cu med, cong]
+23.1 +10.6 45 +25 +26 комфорт 1012.1 997.4
15 20.07 ЮЗ 4
{11}
20 км 8/8 600 м
[Sc diur, vesp]
+23.4 +11.3 47 +26 +26 жарко 1012.0 997.3 +24.9
18 20.07 ЮЗ 3 20 км 6/6 600 м
[Sc]
+19.1 +12.6 66 +20 +20 1012.6 997.6
21 20.07 ЮЗ 4 20 км ясно +16.4 +12.3 77 +16 +16 1012.6 997.5
00 21.07 Ю 2 20 км 1/0
[Ci fib]
+13.7 +11.9 89 +13 +13 1013.1 997.9
03 21.07 ЮЗ 3 20 км 3/3 600 м
[Sc]
+16.7 +13.4 81 +16 +18 1013.0 997.9 +13.4
06 21.07 Ю 3 20 км 9/6 600 м
[Sc diur, vesp Ac trans]
+20.0 +14.1 69 +22 +24 комфорт 1012.9 998.0
09 21.07 ЮЗ 5 20 км 8/8 600 м
[Cu med, cong]
+22.0 +13.4 58 +25 +26 комфорт 1012.0 997.2
12 21.07 Ю 1
{11}
20 км в посл. час гроза {ливн. осадки} 9/9 600 м
[Cb calv]
+19.3 +15.2 77 +22 +23 комфорт 1012.8 997.8

 

Местоположение метеостанции Большие Кайбицы (Татарстан, Россия): широта 55.40 долгота 48.18 высота над уровнем моря 128 м.

В архиве по умолчанию представлена погода в Больших Кайбицах за последнюю неделю. Архивные данные за месяц целиком и за предыдущие месяцы, начиная с января 2011 года, Вы можете получить, выбрав интересующий диапазон дат из раскрывающегося списка и нажав кнопку "Ввод!".


*Определитесь, кто Вы:
робот инопланетянин человек

Внимание! Время в таблицах - всемирное. Для получения местного времени необходимо прибавить поправку, которая равна 3 ч.

Смотрите также архив погоды в соседних городах и на ближайших метеорологических станциях:

Погода в Канаше (Чувашия, Россия) (47 км)
Погода в Вязовых (Татарстан, Россия) (51 км)
Погода в Батырево (Чувашия, Россия) (52 км)
Погода в Тетюшах (Татарстан, Россия) (63 км)
Погода в Камском Устье (Татарстан, Россия) (71 км)
Погода в Казани (Татарстан, Россия) (74 км)
Погода в Дрожжаном (Татарстан, Россия) (85 км)
Погода в Лаишево (Татарстан, Россия) (85 км)
Погода в Чебоксарах (Чувашия, Россия) (92 км)
Погода в Порецком (Чувашия, Россия) (120 км)

Пояснения к столбцам:

Ветер - указаны скорость ветра в м/с - средняя за 10 мин, порывы в срок и между сроками (в фигурных скобках) и направление, откуда дует ветер: С - северный, СВ - северо-восточный, В - восточный, ЮВ - юго-восточный, Ю - южный, ЮЗ - юго-западный, З - западный, СЗ - северо-западный.
Видимость - горизонтальная дальность видимости в метрах или километрах. При видимости от 1 до 10 км при отсутствии осадков обычно наблюдается дымка, при ухудшении видимости до 1 км и менее - туман. В сухую погоду видимость может ухудшаться дымом, пылью или мглою.
Явления - указаны атмосферные явления, наблюдавшиеся в срок или в последний час перед сроком; фигурными скобками обозначены явления, наблюдавшиеся между сроками (за 1-3 часа до срока); квадратными скобками обозначены град или гололедные отложения с указанием их диаметра в мм.
Облачность - указаны через наклонную черту общая и нижняя облачность в баллах и высота нижней границы облаков в метрах; квадратными скобками обозначены формы облаков: Ci - перистые, Cs - перисто-слоистые, Cc - перисто-кучевые, Ac - высококучевые, As - высокослоистые, Sc - слоисто-кучевые, Ns - слоисто-дождевые, Cu - кучевые, Cb - кучево-дождевые. Подробнее классификацию облаков см. в Атласе облаков (PDF).
T - Температура воздуха - температура, измеренная на высоте 2 м над землей.
Td - Температура точки росы - температура, при понижении до которой содержащийся в воздухе водяной пар достигнет насыщения.
f - Относительная влажность воздуха - влажноcть воздуха, измеренная на высоте 2 м над землей.
Te - Эффективная температура - температура, которую ощущает одетый по сезону человек в тени. Характеристика душности погоды. При расчете учитывается влияние влажности воздуха и скорости ветра на теплоощущения человека.
Tes - Эффективная температура на солнце - температура, которую ощущает человек, с поправкой на солнечный нагрев. Характеристика знойности погоды. Зависит от высоты солнца над горизонтом, облачности и скорости ветра. Ночью, в пасмурную погоду, а также при ветре 12 м/с и более поправка равна нулю.
P - Атмосферное давление - приведенное к уровню моря атмосферное давление.
Po - Атмосферное давление - измеренное на уровне метеостанции атмосферное давление.
Tmin - Минимальная температура - минимум температуры воздуха на высоте 2 м над землей.
Tmax - Максимальная температура - максимум температуры воздуха на высоте 2 м над землей.
R - Количество осадков - Количество выпавших осадков за период времени, мм. При наведении курсора мыши на число - период времени, за который выпало указанное количество осадков.
R24 - Количество осадков - Количество выпавших осадков за 24 часа, мм.
S - Снежный покров - Высота снежного покрова, см. При наведении курсора мыши на число - состояние снежного покрова и степень покрытия местности в баллах.